Year,Month,Day,Hour,Minute,Value (Times are PST for windgust in km/hr)
2006,11,12,00,00,9.60
2006,11,12,00,01,17.70
2006,11,12,00,02,16.10
2006,11,12,00,03,17.70
2006,11,12,00,04,17.70
2006,11,12,00,05,8.10
2006,11,12,00,06,9.60
2006,11,12,00,07,11.30
2006,11,12,00,08,11.30
2006,11,12,00,09,11.30
2006,11,12,00,10,14.50
2006,11,12,00,11,11.30
2006,11,12,00,12,14.50
2006,11,12,00,13,8.10
2006,11,12,00,14,9.60
2006,11,12,00,15,9.60
2006,11,12,00,16,6.40
2006,11,12,00,17,6.40
2006,11,12,00,18,4.80
2006,11,12,00,19,4.80
2006,11,12,00,20,9.60
2006,11,12,00,21,9.60
2006,11,12,00,22,6.40
2006,11,12,00,23,4.80
2006,11,12,00,24,8.10
2006,11,12,00,25,6.40
2006,11,12,00,26,8.10
2006,11,12,00,27,6.40
2006,11,12,00,28,6.40
2006,11,12,00,29,6.40
2006,11,12,00,30,6.40
2006,11,12,00,31,8.10
2006,11,12,00,32,6.40
2006,11,12,00,33,9.60
2006,11,12,00,34,6.40
2006,11,12,00,35,4.80
2006,11,12,00,36,9.60
2006,11,12,00,37,6.40
2006,11,12,00,38,14.50
2006,11,12,00,39,9.60
2006,11,12,00,40,4.80
2006,11,12,00,41,9.60
2006,11,12,00,42,6.40
2006,11,12,00,43,4.80
2006,11,12,00,44,8.10
2006,11,12,00,45,4.80
2006,11,12,00,46,3.20
2006,11,12,00,47,4.80
2006,11,12,00,48,4.80
2006,11,12,00,49,8.10
2006,11,12,00,50,9.60
2006,11,12,00,51,8.10
2006,11,12,00,52,8.10
2006,11,12,00,53,4.80
2006,11,12,00,54,3.20
2006,11,12,00,55,3.20
2006,11,12,00,56,6.40
2006,11,12,00,57,6.40
2006,11,12,00,58,3.20
2006,11,12,00,59,1.60
2006,11,12,01,00,1.60
2006,11,12,01,01,1.60
2006,11,12,01,02,0.00
2006,11,12,01,03,1.60
2006,11,12,01,04,4.80
2006,11,12,01,05,4.80
2006,11,12,01,06,3.20
2006,11,12,01,07,3.20
2006,11,12,01,08,3.20
2006,11,12,01,09,1.60
2006,11,12,01,10,3.20
2006,11,12,01,11,4.80
2006,11,12,01,12,1.60
2006,11,12,01,13,3.20
2006,11,12,01,14,3.20
2006,11,12,01,15,4.80
2006,11,12,01,16,4.80
2006,11,12,01,17,6.40
2006,11,12,01,18,6.40
2006,11,12,01,19,4.80
2006,11,12,01,20,8.10
2006,11,12,01,21,4.80
2006,11,12,01,22,4.80
2006,11,12,01,23,6.40
2006,11,12,01,24,4.80
2006,11,12,01,25,4.80
2006,11,12,01,26,3.20
2006,11,12,01,27,3.20
2006,11,12,01,28,3.20
2006,11,12,01,29,0.00
2006,11,12,01,30,6.40
2006,11,12,01,31,3.20
2006,11,12,01,32,3.20
2006,11,12,01,33,3.20
2006,11,12,01,34,3.20
2006,11,12,01,35,1.60
2006,11,12,01,36,3.20
2006,11,12,01,37,4.80
2006,11,12,01,38,4.80
2006,11,12,01,39,6.40
2006,11,12,01,40,4.80
2006,11,12,01,41,6.40
2006,11,12,01,42,4.80
2006,11,12,01,43,6.40
2006,11,12,01,44,4.80
2006,11,12,01,45,4.80
2006,11,12,01,46,4.80
2006,11,12,01,47,9.60
2006,11,12,01,48,9.60
2006,11,12,01,49,4.80
2006,11,12,01,50,6.40
2006,11,12,01,51,8.10
2006,11,12,01,52,6.40
2006,11,12,01,53,6.40
2006,11,12,01,54,6.40
2006,11,12,01,55,8.10
2006,11,12,01,56,8.10
2006,11,12,01,57,19.30
2006,11,12,01,58,9.60
2006,11,12,01,59,8.10
2006,11,12,02,00,17.70
2006,11,12,02,01,16.10
2006,11,12,02,02,12.90
2006,11,12,02,03,11.30
2006,11,12,02,04,17.70
2006,11,12,02,05,22.50
2006,11,12,02,06,16.10
2006,11,12,02,07,22.50
2006,11,12,02,08,19.30
2006,11,12,02,09,20.90
2006,11,12,02,10,22.50
2006,11,12,02,11,20.90
2006,11,12,02,12,17.70
2006,11,12,02,13,30.60
2006,11,12,02,14,19.30
2006,11,12,02,15,17.70
2006,11,12,02,16,14.50
2006,11,12,02,17,17.70
2006,11,12,02,18,22.50
2006,11,12,02,19,24.20
2006,11,12,02,20,30.60
2006,11,12,02,21,25.70
2006,11,12,02,22,27.40
2006,11,12,02,23,25.70
2006,11,12,02,24,20.90
2006,11,12,02,25,19.30
2006,11,12,02,26,22.50
2006,11,12,02,27,25.70
2006,11,12,02,28,22.50
2006,11,12,02,29,32.20
2006,11,12,02,30,35.40
2006,11,12,02,31,37.00
2006,11,12,02,32,37.00
2006,11,12,02,33,32.20
2006,11,12,02,34,22.50
2006,11,12,02,35,25.70
2006,11,12,02,36,35.40
2006,11,12,02,37,27.40
2006,11,12,02,38,24.20
2006,11,12,02,39,25.70
2006,11,12,02,40,24.20
2006,11,12,02,41,19.30
2006,11,12,02,42,25.70
2006,11,12,02,43,24.20
2006,11,12,02,44,19.30
2006,11,12,02,45,22.50
2006,11,12,02,46,27.40
2006,11,12,02,47,29.00
2006,11,12,02,48,25.70
2006,11,12,02,49,20.90
2006,11,12,02,50,19.30
2006,11,12,02,51,20.90
2006,11,12,02,52,27.40
2006,11,12,02,53,16.10
2006,11,12,02,54,20.90
2006,11,12,02,55,24.20
2006,11,12,02,56,25.70
2006,11,12,02,57,29.00
2006,11,12,02,58,20.90
2006,11,12,02,59,17.70
2006,11,12,03,00,17.70
2006,11,12,03,01,17.70
2006,11,12,03,02,11.30
2006,11,12,03,03,11.30
2006,11,12,03,04,17.70
2006,11,12,03,05,20.90
2006,11,12,03,06,17.70
2006,11,12,03,07,19.30
2006,11,12,03,08,17.70
2006,11,12,03,09,9.60
2006,11,12,03,10,14.50
2006,11,12,03,11,9.60
2006,11,12,03,12,19.30
2006,11,12,03,13,17.70
2006,11,12,03,14,11.30
2006,11,12,03,15,14.50
2006,11,12,03,16,19.30
2006,11,12,03,17,12.90
2006,11,12,03,18,16.10
2006,11,12,03,19,14.50
2006,11,12,03,20,25.70
2006,11,12,03,21,20.90
2006,11,12,03,22,19.30
2006,11,12,03,23,19.30
2006,11,12,03,24,19.30
2006,11,12,03,25,20.90
2006,11,12,03,26,24.20
2006,11,12,03,27,19.30
2006,11,12,03,28,19.30
2006,11,12,03,29,12.90
2006,11,12,03,30,20.90
2006,11,12,03,31,19.30
2006,11,12,03,32,16.10
2006,11,12,03,33,17.70
2006,11,12,03,34,20.90
2006,11,12,03,35,19.30
2006,11,12,03,36,17.70
2006,11,12,03,37,9.60
2006,11,12,03,38,14.50
2006,11,12,03,39,19.30
2006,11,12,03,40,24.20
2006,11,12,03,41,16.10
2006,11,12,03,42,19.30
2006,11,12,03,43,11.30
2006,11,12,03,44,12.90
2006,11,12,03,45,19.30
2006,11,12,03,46,9.60
2006,11,12,03,47,12.90
2006,11,12,03,48,17.70
2006,11,12,03,49,20.90
2006,11,12,03,50,20.90
2006,11,12,03,51,17.70
2006,11,12,03,52,17.70
2006,11,12,03,53,14.50
2006,11,12,03,54,24.20
2006,11,12,03,55,24.20
2006,11,12,03,56,17.70
2006,11,12,03,57,20.90
2006,11,12,03,58,22.50
2006,11,12,03,59,25.70
2006,11,12,04,00,29.00
2006,11,12,04,01,22.50
2006,11,12,04,02,17.70
2006,11,12,04,03,22.50
2006,11,12,04,04,19.30
2006,11,12,04,05,19.30
2006,11,12,04,06,20.90
2006,11,12,04,07,24.20
2006,11,12,04,08,24.20
2006,11,12,04,09,22.50
2006,11,12,04,10,17.70
2006,11,12,04,11,19.30
2006,11,12,04,12,20.90
2006,11,12,04,13,22.50
2006,11,12,04,14,27.40
2006,11,12,04,15,24.20
2006,11,12,04,16,20.90
2006,11,12,04,17,17.70
2006,11,12,04,18,22.50
2006,11,12,04,19,24.20
2006,11,12,04,20,27.40
2006,11,12,04,21,30.60
2006,11,12,04,22,17.70
2006,11,12,04,23,20.90
2006,11,12,04,24,20.90
2006,11,12,04,25,30.60
2006,11,12,04,26,27.40
2006,11,12,04,27,30.60
2006,11,12,04,28,17.70
2006,11,12,04,29,11.30
2006,11,12,04,30,16.10
2006,11,12,04,31,16.10
2006,11,12,04,32,19.30
2006,11,12,04,33,19.30
2006,11,12,04,34,17.70
2006,11,12,04,35,24.20
2006,11,12,04,36,27.40
2006,11,12,04,37,19.30
2006,11,12,04,38,22.50
2006,11,12,04,39,20.90
2006,11,12,04,40,22.50
2006,11,12,04,41,20.90
2006,11,12,04,42,20.90
2006,11,12,04,43,27.40
2006,11,12,04,44,19.30
2006,11,12,04,45,20.90
2006,11,12,04,46,20.90
2006,11,12,04,47,20.90
2006,11,12,04,48,22.50
2006,11,12,04,49,27.40
2006,11,12,04,50,22.50
2006,11,12,04,51,17.70
2006,11,12,04,52,17.70
2006,11,12,04,53,12.90
2006,11,12,04,54,12.90
2006,11,12,04,55,19.30
2006,11,12,04,56,20.90
2006,11,12,04,57,16.10
2006,11,12,04,58,16.10
2006,11,12,04,59,24.20
2006,11,12,05,00,14.50
2006,11,12,05,01,14.50
2006,11,12,05,02,12.90
2006,11,12,05,03,24.20
2006,11,12,05,04,20.90
2006,11,12,05,05,16.10
2006,11,12,05,06,27.40
2006,11,12,05,07,19.30
2006,11,12,05,08,19.30
2006,11,12,05,09,14.50
2006,11,12,05,10,17.70
2006,11,12,05,11,24.20
2006,11,12,05,12,19.30
2006,11,12,05,13,20.90
2006,11,12,05,14,17.70
2006,11,12,05,15,20.90
2006,11,12,05,16,19.30
2006,11,12,05,17,20.90
2006,11,12,05,18,16.10
2006,11,12,05,19,16.10
2006,11,12,05,20,11.30
2006,11,12,05,21,16.10
2006,11,12,05,22,19.30
2006,11,12,05,23,17.70
2006,11,12,05,24,17.70
2006,11,12,05,25,8.10
2006,11,12,05,26,8.10
2006,11,12,05,27,19.30
2006,11,12,05,28,14.50
2006,11,12,05,29,9.60
2006,11,12,05,30,16.10
2006,11,12,05,31,17.70
2006,11,12,05,32,14.50
2006,11,12,05,33,11.30
2006,11,12,05,34,14.50
2006,11,12,05,35,8.10
2006,11,12,05,36,8.10
2006,11,12,05,37,11.30
2006,11,12,05,38,9.60
2006,11,12,05,39,14.50
2006,11,12,05,40,11.30
2006,11,12,05,41,8.10
2006,11,12,05,42,9.60
2006,11,12,05,43,17.70
2006,11,12,05,44,14.50
2006,11,12,05,45,6.40
2006,11,12,05,46,4.80
2006,11,12,05,47,8.10
2006,11,12,05,48,6.40
2006,11,12,05,49,3.20
2006,11,12,05,50,6.40
2006,11,12,05,51,8.10
2006,11,12,05,52,8.10
2006,11,12,05,53,9.60
2006,11,12,05,54,19.30
2006,11,12,05,55,8.10
2006,11,12,05,56,11.30
2006,11,12,05,57,11.30
2006,11,12,05,58,16.10
2006,11,12,05,59,14.50
2006,11,12,06,00,16.10
2006,11,12,06,01,12.90
2006,11,12,06,02,17.70
2006,11,12,06,03,11.30
2006,11,12,06,04,11.30
2006,11,12,06,05,17.70
2006,11,12,06,06,12.90
2006,11,12,06,07,12.90
2006,11,12,06,08,17.70
2006,11,12,06,09,9.60
2006,11,12,06,10,17.70
2006,11,12,06,11,16.10
2006,11,12,06,12,16.10
2006,11,12,06,13,17.70
2006,11,12,06,14,14.50
2006,11,12,06,15,11.30
2006,11,12,06,16,14.50
2006,11,12,06,17,12.90
2006,11,12,06,18,12.90
2006,11,12,06,19,12.90
2006,11,12,06,20,14.50
2006,11,12,06,21,9.60
2006,11,12,06,22,20.90
2006,11,12,06,23,12.90
2006,11,12,06,24,11.30
2006,11,12,06,25,11.30
2006,11,12,06,26,12.90
2006,11,12,06,27,16.10
2006,11,12,06,28,17.70
2006,11,12,06,29,17.70
2006,11,12,06,30,17.70
2006,11,12,06,31,16.10
2006,11,12,06,32,8.10
2006,11,12,06,33,17.70
2006,11,12,06,34,14.50
2006,11,12,06,35,16.10
2006,11,12,06,36,17.70
2006,11,12,06,37,14.50
2006,11,12,06,38,16.10
2006,11,12,06,39,12.90
2006,11,12,06,40,19.30
2006,11,12,06,41,17.70
2006,11,12,06,42,17.70
2006,11,12,06,43,14.50
2006,11,12,06,44,16.10
2006,11,12,06,45,17.70
2006,11,12,06,46,17.70
2006,11,12,06,47,9.60
2006,11,12,06,48,14.50
2006,11,12,06,49,11.30
2006,11,12,06,50,8.10
2006,11,12,06,51,9.60
2006,11,12,06,52,20.90
2006,11,12,06,53,9.60
2006,11,12,06,54,11.30
2006,11,12,06,55,9.60
2006,11,12,06,56,14.50
2006,11,12,06,57,19.30
2006,11,12,06,58,16.10
2006,11,12,06,59,9.60
2006,11,12,07,00,9.60
2006,11,12,07,01,16.10
2006,11,12,07,02,17.70
2006,11,12,07,03,14.50
2006,11,12,07,04,17.70
2006,11,12,07,05,20.90
2006,11,12,07,06,14.50
2006,11,12,07,07,16.10
2006,11,12,07,08,9.60
2006,11,12,07,09,17.70
2006,11,12,07,10,16.10
2006,11,12,07,11,12.90
2006,11,12,07,12,17.70
2006,11,12,07,13,16.10
2006,11,12,07,14,12.90
2006,11,12,07,15,6.40
2006,11,12,07,16,14.50
2006,11,12,07,17,16.10
2006,11,12,07,18,9.60
2006,11,12,07,19,17.70
2006,11,12,07,20,16.10
2006,11,12,07,21,12.90
2006,11,12,07,22,14.50
2006,11,12,07,23,11.30
2006,11,12,07,24,11.30
2006,11,12,07,25,9.60
2006,11,12,07,26,14.50
2006,11,12,07,27,11.30
2006,11,12,07,28,9.60
2006,11,12,07,29,8.10
2006,11,12,07,30,6.40
2006,11,12,07,31,4.80
2006,11,12,07,32,9.60
2006,11,12,07,33,8.10
2006,11,12,07,34,16.10
2006,11,12,07,35,22.50
2006,11,12,07,36,14.50
2006,11,12,07,37,9.60
2006,11,12,07,38,9.60
2006,11,12,07,39,14.50
2006,11,12,07,40,14.50
2006,11,12,07,41,12.90
2006,11,12,07,42,17.70
2006,11,12,07,43,12.90
2006,11,12,07,44,9.60
2006,11,12,07,45,11.30
2006,11,12,07,46,16.10
2006,11,12,07,47,12.90
2006,11,12,07,48,11.30
2006,11,12,07,49,11.30
2006,11,12,07,50,16.10
2006,11,12,07,51,17.70
2006,11,12,07,52,17.70
2006,11,12,07,53,17.70
2006,11,12,07,54,16.10
2006,11,12,07,55,11.30
2006,11,12,07,56,14.50
2006,11,12,07,57,9.60
2006,11,12,07,58,9.60
2006,11,12,07,59,9.60
2006,11,12,08,00,9.60
2006,11,12,08,01,9.60
2006,11,12,08,02,9.60
2006,11,12,08,03,11.30
2006,11,12,08,04,11.30
2006,11,12,08,05,11.30
2006,11,12,08,06,14.50
2006,11,12,08,07,16.10
2006,11,12,08,08,17.70
2006,11,12,08,09,14.50
2006,11,12,08,10,14.50
2006,11,12,08,11,9.60
2006,11,12,08,12,8.10
2006,11,12,08,13,8.10
2006,11,12,08,14,6.40
2006,11,12,08,15,6.40
2006,11,12,08,16,8.10
2006,11,12,08,17,8.10
2006,11,12,08,18,6.40
2006,11,12,08,19,6.40
2006,11,12,08,20,6.40
2006,11,12,08,21,4.80
2006,11,12,08,22,4.80
2006,11,12,08,23,8.10
2006,11,12,08,24,4.80
2006,11,12,08,25,6.40
2006,11,12,08,26,6.40
2006,11,12,08,27,4.80
2006,11,12,08,28,9.60
2006,11,12,08,29,8.10
2006,11,12,08,30,6.40
2006,11,12,08,31,6.40
2006,11,12,08,32,4.80
2006,11,12,08,33,4.80
2006,11,12,08,34,8.10
2006,11,12,08,35,4.80
2006,11,12,08,36,9.60
2006,11,12,08,37,8.10
2006,11,12,08,38,9.60
2006,11,12,08,39,9.60
2006,11,12,08,40,8.10
2006,11,12,08,41,8.10
2006,11,12,08,42,16.10
2006,11,12,08,43,16.10
2006,11,12,08,44,16.10
2006,11,12,08,45,9.60
2006,11,12,08,46,11.30
2006,11,12,08,47,11.30
2006,11,12,08,48,11.30
2006,11,12,08,49,8.10
2006,11,12,08,50,14.50
2006,11,12,08,51,8.10
2006,11,12,08,52,11.30
2006,11,12,08,53,11.30
2006,11,12,08,54,9.60
2006,11,12,08,55,14.50
2006,11,12,08,56,14.50
2006,11,12,08,57,11.30
2006,11,12,08,58,8.10
2006,11,12,08,59,6.40
2006,11,12,09,00,9.60
2006,11,12,09,01,8.10
2006,11,12,09,02,9.60
2006,11,12,09,03,14.50
2006,11,12,09,04,16.10
2006,11,12,09,05,16.10
2006,11,12,09,06,9.60
2006,11,12,09,07,16.10
2006,11,12,09,08,8.10
2006,11,12,09,09,11.30
2006,11,12,09,10,16.10
2006,11,12,09,11,14.50
2006,11,12,09,12,17.70
2006,11,12,09,13,9.60
2006,11,12,09,14,16.10
2006,11,12,09,15,11.30
2006,11,12,09,16,16.10
2006,11,12,09,17,17.70
2006,11,12,09,18,14.50
2006,11,12,09,19,14.50
2006,11,12,09,20,9.60
2006,11,12,09,21,11.30
2006,11,12,09,22,8.10
2006,11,12,09,23,8.10
2006,11,12,09,24,9.60
2006,11,12,09,25,6.40
2006,11,12,09,26,11.30
2006,11,12,09,27,12.90
2006,11,12,09,28,11.30
2006,11,12,09,29,14.50
2006,11,12,09,30,0.00
2006,11,12,09,31,11.30
2006,11,12,09,32,6.40
2006,11,12,09,33,9.60
2006,11,12,09,34,16.10
2006,11,12,09,35,11.30
2006,11,12,09,36,6.40
2006,11,12,09,37,8.10
2006,11,12,09,38,4.80
2006,11,12,09,39,9.60
2006,11,12,09,40,6.40
2006,11,12,09,41,17.70
2006,11,12,09,42,6.40
2006,11,12,09,43,6.40
2006,11,12,09,44,8.10
2006,11,12,09,45,4.80
2006,11,12,09,46,3.20
2006,11,12,09,47,4.80
2006,11,12,09,48,8.10
2006,11,12,09,49,6.40
2006,11,12,09,50,6.40
2006,11,12,09,51,6.40
2006,11,12,09,52,11.30
2006,11,12,09,53,14.50
2006,11,12,09,54,11.30
2006,11,12,09,55,12.90
2006,11,12,09,56,11.30
2006,11,12,09,57,9.60
2006,11,12,09,58,11.30
2006,11,12,09,59,8.10
2006,11,12,10,00,12.90
2006,11,12,10,01,11.30
2006,11,12,10,02,14.50
2006,11,12,10,03,20.90
2006,11,12,10,04,19.30
2006,11,12,10,05,14.50
2006,11,12,10,06,16.10
2006,11,12,10,07,17.70
2006,11,12,10,08,16.10
2006,11,12,10,09,17.70
2006,11,12,10,10,17.70
2006,11,12,10,11,14.50
2006,11,12,10,12,12.90
2006,11,12,10,13,17.70
2006,11,12,10,14,17.70
2006,11,12,10,15,16.10
2006,11,12,10,16,11.30
2006,11,12,10,17,19.30
2006,11,12,10,18,19.30
2006,11,12,10,19,19.30
2006,11,12,10,20,16.10
2006,11,12,10,21,17.70
2006,11,12,10,22,16.10
2006,11,12,10,23,16.10
2006,11,12,10,24,9.60
2006,11,12,10,25,16.10
2006,11,12,10,26,12.90
2006,11,12,10,27,17.70
2006,11,12,10,28,14.50
2006,11,12,10,29,12.90
2006,11,12,10,30,16.10
2006,11,12,10,31,16.10
2006,11,12,10,32,11.30
2006,11,12,10,33,9.60
2006,11,12,10,34,6.40
2006,11,12,10,35,11.30
2006,11,12,10,36,6.40
2006,11,12,10,37,11.30
2006,11,12,10,38,8.10
2006,11,12,10,39,8.10
2006,11,12,10,40,8.10
2006,11,12,10,41,6.40
2006,11,12,10,42,8.10
2006,11,12,10,43,4.80
2006,11,12,10,44,4.80
2006,11,12,10,45,1.60
2006,11,12,10,46,4.80
2006,11,12,10,47,6.40
2006,11,12,10,48,4.80
2006,11,12,10,49,4.80
2006,11,12,10,50,3.20
2006,11,12,10,51,1.60
2006,11,12,10,52,3.20
2006,11,12,10,53,8.10
2006,11,12,10,54,3.20
2006,11,12,10,55,3.20
2006,11,12,10,56,4.80
2006,11,12,10,57,6.40
2006,11,12,10,58,6.40
2006,11,12,10,59,8.10
2006,11,12,11,00,4.80
2006,11,12,11,01,6.40
2006,11,12,11,02,3.20
2006,11,12,11,03,3.20
2006,11,12,11,04,3.20
2006,11,12,11,05,4.80
2006,11,12,11,06,3.20
2006,11,12,11,07,4.80
2006,11,12,11,08,6.40
2006,11,12,11,09,6.40
2006,11,12,11,10,6.40
2006,11,12,11,11,4.80
2006,11,12,11,12,6.40
2006,11,12,11,13,3.20
2006,11,12,11,14,4.80
2006,11,12,11,15,6.40
2006,11,12,11,16,3.20
2006,11,12,11,17,6.40
2006,11,12,11,18,4.80
2006,11,12,11,19,6.40
2006,11,12,11,20,8.10
2006,11,12,11,21,4.80
2006,11,12,11,22,3.20
2006,11,12,11,23,4.80
2006,11,12,11,24,8.10
2006,11,12,11,25,8.10
2006,11,12,11,26,8.10
2006,11,12,11,27,9.60
2006,11,12,11,28,8.10
2006,11,12,11,29,11.30
2006,11,12,11,30,9.60
2006,11,12,11,31,17.70
2006,11,12,11,32,9.60
2006,11,12,11,33,8.10
2006,11,12,11,34,6.40
2006,11,12,11,35,6.40
2006,11,12,11,36,9.60
2006,11,12,11,37,6.40
2006,11,12,11,38,6.40
2006,11,12,11,39,4.80
2006,11,12,11,40,6.40
2006,11,12,11,41,4.80
2006,11,12,11,42,3.20
2006,11,12,11,43,6.40
2006,11,12,11,44,8.10
2006,11,12,11,45,1.60
2006,11,12,11,46,6.40
2006,11,12,11,47,4.80
2006,11,12,11,48,0.00
2006,11,12,11,49,1.60
2006,11,12,11,50,4.80
2006,11,12,11,51,1.60
2006,11,12,11,52,1.60
2006,11,12,11,53,6.40
2006,11,12,11,54,3.20
2006,11,12,11,55,1.60
2006,11,12,11,56,1.60
2006,11,12,11,57,4.80
2006,11,12,11,58,1.60
2006,11,12,11,59,1.60
2006,11,12,12,00,1.60
2006,11,12,12,01,6.40
2006,11,12,12,02,8.10
2006,11,12,12,03,9.60
2006,11,12,12,04,14.50
2006,11,12,12,05,4.80
2006,11,12,12,06,16.10
2006,11,12,12,07,14.50
2006,11,12,12,08,11.30
2006,11,12,12,09,6.40
2006,11,12,12,10,11.30
2006,11,12,12,11,14.50
2006,11,12,12,12,14.50
2006,11,12,12,13,14.50
2006,11,12,12,14,9.60
2006,11,12,12,15,6.40
2006,11,12,12,16,11.30
2006,11,12,12,17,8.10
2006,11,12,12,18,9.60
2006,11,12,12,19,8.10
2006,11,12,12,20,8.10
2006,11,12,12,21,4.80
2006,11,12,12,22,6.40
2006,11,12,12,23,8.10
2006,11,12,12,24,6.40
2006,11,12,12,25,9.60
2006,11,12,12,26,8.10
2006,11,12,12,27,8.10
2006,11,12,12,28,4.80
2006,11,12,12,29,9.60
2006,11,12,12,30,6.40
2006,11,12,12,31,6.40
2006,11,12,12,32,14.50
2006,11,12,12,33,9.60
2006,11,12,12,34,14.50
2006,11,12,12,35,11.30
2006,11,12,12,36,9.60
2006,11,12,12,37,6.40
2006,11,12,12,38,11.30
2006,11,12,12,39,9.60
2006,11,12,12,40,6.40
2006,11,12,12,41,11.30
2006,11,12,12,42,9.60
2006,11,12,12,43,3.20
2006,11,12,12,44,9.60
2006,11,12,12,45,8.10
2006,11,12,12,46,6.40
2006,11,12,12,47,4.80
2006,11,12,12,48,8.10
2006,11,12,12,49,9.60
2006,11,12,12,50,14.50
2006,11,12,12,51,8.10
2006,11,12,12,52,6.40
2006,11,12,12,53,3.20
2006,11,12,12,54,4.80
2006,11,12,12,55,6.40
2006,11,12,12,56,6.40
2006,11,12,12,57,6.40
2006,11,12,12,58,6.40
2006,11,12,12,59,3.20
2006,11,12,13,00,4.80
2006,11,12,13,01,4.80
2006,11,12,13,02,6.40
2006,11,12,13,03,8.10
2006,11,12,13,04,4.80
2006,11,12,13,05,6.40
2006,11,12,13,06,8.10
2006,11,12,13,07,6.40
2006,11,12,13,08,4.80
2006,11,12,13,09,4.80
2006,11,12,13,10,4.80
2006,11,12,13,11,3.20
2006,11,12,13,12,3.20
2006,11,12,13,13,1.60
2006,11,12,13,14,0.00
2006,11,12,13,15,0.00
2006,11,12,13,16,0.00
2006,11,12,13,17,3.20
2006,11,12,13,18,3.20
2006,11,12,13,19,3.20
2006,11,12,13,20,3.20
2006,11,12,13,21,3.20
2006,11,12,13,22,3.20
2006,11,12,13,23,1.60
2006,11,12,13,24,1.60
2006,11,12,13,25,1.60
2006,11,12,13,26,3.20
2006,11,12,13,27,3.20
2006,11,12,13,28,1.60
2006,11,12,13,29,3.20
2006,11,12,13,30,1.60
2006,11,12,13,31,1.60
2006,11,12,13,32,3.20
2006,11,12,13,33,1.60
2006,11,12,13,34,4.80
2006,11,12,13,35,3.20
2006,11,12,13,36,0.00
2006,11,12,13,37,3.20
2006,11,12,13,38,0.00
2006,11,12,13,39,1.60
2006,11,12,13,40,3.20
2006,11,12,13,41,3.20
2006,11,12,13,42,1.60
2006,11,12,13,43,0.00
2006,11,12,13,44,0.00
2006,11,12,13,45,0.00
2006,11,12,13,46,1.60
2006,11,12,13,47,0.00
2006,11,12,13,48,0.00
2006,11,12,13,49,1.60
2006,11,12,13,50,3.20
2006,11,12,13,51,4.80
2006,11,12,13,52,1.60
2006,11,12,13,53,4.80
2006,11,12,13,54,4.80
2006,11,12,13,55,3.20
2006,11,12,13,56,1.60
2006,11,12,13,57,1.60
2006,11,12,13,58,3.20
2006,11,12,13,59,1.60
2006,11,12,14,00,1.60
2006,11,12,14,01,1.60
2006,11,12,14,02,1.60
2006,11,12,14,03,3.20
2006,11,12,14,04,1.60
2006,11,12,14,05,6.40
2006,11,12,14,06,3.20
2006,11,12,14,07,6.40
2006,11,12,14,08,3.20
2006,11,12,14,09,1.60
2006,11,12,14,10,3.20
2006,11,12,14,11,3.20
2006,11,12,14,12,3.20
2006,11,12,14,13,3.20
2006,11,12,14,14,4.80
2006,11,12,14,15,4.80
2006,11,12,14,16,4.80
2006,11,12,14,17,3.20
2006,11,12,14,18,3.20
2006,11,12,14,19,3.20
2006,11,12,14,20,3.20
2006,11,12,14,21,1.60
2006,11,12,14,22,6.40
2006,11,12,14,23,4.80
2006,11,12,14,24,4.80
2006,11,12,14,25,6.40
2006,11,12,14,26,6.40
2006,11,12,14,27,0.00
2006,11,12,14,28,6.40
2006,11,12,14,29,4.80
2006,11,12,14,30,1.60
2006,11,12,14,31,3.20
2006,11,12,14,32,1.60
2006,11,12,14,33,4.80
2006,11,12,14,34,1.60
2006,11,12,14,35,1.60
2006,11,12,14,36,1.60
2006,11,12,14,37,3.20
2006,11,12,14,38,3.20
2006,11,12,14,39,3.20
2006,11,12,14,40,4.80
2006,11,12,14,41,4.80
2006,11,12,14,42,1.60
2006,11,12,14,43,1.60
2006,11,12,14,44,0.00
2006,11,12,14,45,1.60
2006,11,12,14,46,1.60
2006,11,12,14,47,4.80
2006,11,12,14,48,3.20
2006,11,12,14,49,1.60
2006,11,12,14,50,3.20
2006,11,12,14,51,1.60
2006,11,12,14,52,1.60
2006,11,12,14,53,1.60
2006,11,12,14,54,0.00
2006,11,12,14,55,1.60
2006,11,12,14,56,3.20
2006,11,12,14,57,3.20
2006,11,12,14,58,0.00
2006,11,12,14,59,0.00
2006,11,12,15,00,0.00
2006,11,12,15,01,0.00
2006,11,12,15,02,0.00
2006,11,12,15,03,0.00
2006,11,12,15,04,0.00
2006,11,12,15,05,0.00
2006,11,12,15,06,0.00
2006,11,12,15,07,1.60
2006,11,12,15,08,1.60
2006,11,12,15,09,1.60
2006,11,12,15,10,0.00
2006,11,12,15,11,0.00
2006,11,12,15,12,0.00
2006,11,12,15,13,0.00
2006,11,12,15,14,1.60
2006,11,12,15,15,1.60
2006,11,12,15,16,0.00
2006,11,12,15,17,1.60
2006,11,12,15,18,1.60
2006,11,12,15,19,1.60
2006,11,12,15,20,1.60
2006,11,12,15,21,1.60
2006,11,12,15,22,1.60
2006,11,12,15,23,1.60
2006,11,12,15,24,0.00
2006,11,12,15,25,1.60
2006,11,12,15,26,0.00
2006,11,12,15,27,1.60
2006,11,12,15,28,3.20
2006,11,12,15,29,4.80
2006,11,12,15,30,4.80
2006,11,12,15,31,1.60
2006,11,12,15,32,3.20
2006,11,12,15,33,11.30
2006,11,12,15,34,11.30
2006,11,12,15,35,9.60
2006,11,12,15,36,11.30
2006,11,12,15,37,12.90
2006,11,12,15,38,8.10
2006,11,12,15,39,8.10
2006,11,12,15,40,9.60
2006,11,12,15,41,9.60
2006,11,12,15,42,16.10
2006,11,12,15,43,11.30
2006,11,12,15,44,12.90
2006,11,12,15,45,17.70
2006,11,12,15,46,14.50
2006,11,12,15,47,8.10
2006,11,12,15,48,9.60
2006,11,12,15,49,11.30
2006,11,12,15,50,9.60
2006,11,12,15,51,9.60
2006,11,12,15,52,9.60
2006,11,12,15,53,9.60
2006,11,12,15,54,11.30
2006,11,12,15,55,11.30
2006,11,12,15,56,9.60
2006,11,12,15,57,11.30
2006,11,12,15,58,16.10
2006,11,12,15,59,22.50
2006,11,12,16,00,22.50
2006,11,12,16,01,14.50
2006,11,12,16,02,16.10
2006,11,12,16,03,14.50
2006,11,12,16,04,16.10
2006,11,12,16,05,16.10
2006,11,12,16,06,16.10
2006,11,12,16,07,14.50
2006,11,12,16,08,17.70
2006,11,12,16,09,20.90
2006,11,12,16,10,19.30
2006,11,12,16,11,16.10
2006,11,12,16,12,17.70
2006,11,12,16,13,17.70
2006,11,12,16,14,17.70
2006,11,12,16,15,17.70
2006,11,12,16,16,22.50
2006,11,12,16,17,22.50
2006,11,12,16,18,17.70
2006,11,12,16,19,16.10
2006,11,12,16,20,20.90
2006,11,12,16,21,24.20
2006,11,12,16,22,17.70
2006,11,12,16,23,22.50
2006,11,12,16,24,20.90
2006,11,12,16,25,20.90
2006,11,12,16,26,12.90
2006,11,12,16,27,19.30
2006,11,12,16,28,17.70
2006,11,12,16,29,14.50
2006,11,12,16,30,14.50
2006,11,12,16,31,16.10
2006,11,12,16,32,24.20
2006,11,12,16,33,22.50
2006,11,12,16,34,19.30
2006,11,12,16,35,17.70
2006,11,12,16,36,16.10
2006,11,12,16,37,20.90
2006,11,12,16,38,20.90
2006,11,12,16,39,17.70
2006,11,12,16,40,17.70
2006,11,12,16,41,16.10
2006,11,12,16,42,9.60
2006,11,12,16,43,14.50
2006,11,12,16,44,11.30
2006,11,12,16,45,22.50
2006,11,12,16,46,11.30
2006,11,12,16,47,17.70
2006,11,12,16,48,17.70
2006,11,12,16,49,17.70
2006,11,12,16,50,24.20
2006,11,12,16,51,19.30
2006,11,12,16,52,22.50
2006,11,12,16,53,24.20
2006,11,12,16,54,25.70
2006,11,12,16,55,25.70
2006,11,12,16,56,19.30
2006,11,12,16,57,17.70
2006,11,12,16,58,17.70
2006,11,12,16,59,22.50
2006,11,12,17,00,16.10
2006,11,12,17,01,9.60
2006,11,12,17,02,6.40
2006,11,12,17,03,9.60
2006,11,12,17,04,19.30
2006,11,12,17,05,11.30
2006,11,12,17,06,17.70
2006,11,12,17,07,14.50
2006,11,12,17,08,20.90
2006,11,12,17,09,16.10
2006,11,12,17,10,24.20
2006,11,12,17,11,9.60
2006,11,12,17,12,30.60
2006,11,12,17,13,20.90
2006,11,12,17,14,19.30
2006,11,12,17,15,29.00
2006,11,12,17,16,24.20
2006,11,12,17,17,32.20
2006,11,12,17,18,37.00
2006,11,12,17,19,35.40
2006,11,12,17,20,41.80
2006,11,12,17,21,35.40
2006,11,12,17,22,32.20
2006,11,12,17,23,33.80
2006,11,12,17,24,38.60
2006,11,12,17,25,32.20
2006,11,12,17,26,41.80
2006,11,12,17,27,37.00
2006,11,12,17,28,38.60
2006,11,12,17,29,25.70
2006,11,12,17,30,35.40
2006,11,12,17,31,24.20
2006,11,12,17,32,16.10
2006,11,12,17,33,33.80
2006,11,12,17,34,41.80
2006,11,12,17,35,45.10
2006,11,12,17,36,37.00
2006,11,12,17,37,43.50
2006,11,12,17,38,32.20
2006,11,12,17,39,54.70
2006,11,12,17,40,53.10
2006,11,12,17,41,46.70
2006,11,12,17,42,46.70